Vorticity
5 6 8 7 8 9 8 7 7 6 9 13 16 15 14 2 15 3 4 6 6 7 10 8 8 7 10 11 -1 -13 20 18 17 4 7 16 13 7 8 18 1 6 -1 7 15 -7 -4
7 6 5 4 5 6 9 8 7 7 7 9 15 15 16 14 12 8 5 6 5 5 9 9 9 8 8 7 9 -3 20 21 14 7 2 5 -0 6 11 4 7 7 13 2 3 6 11
6 5 6 6 5 7 6 7 9 7 9 10 14 17 15 21 16 4 7 2 5 8 4 11 10 7 7 17 12 10 -12 5 25 9 5 3 2 6 16 11 5 5 3 10 10 9 8
7 7 7 6 4 6 9 13 14 20 21 24 22 19 16 15 22 19 5 5 4 9 5 13 10 7 8 5 8 15 9 2 5 13 10 17 15 8 -13 0 7 8 16 12 31 11 21
6 6 6 6 5 7 10 25 8 8 10 8 1 14 19 8 25 19 14 5 0 12 12 7 10 7 9 6 10 6 12 11 11 -6 -2 -4 14 17 17 3 8 14 -3 11 -0 12 3
5 7 8 7 7 9 21 20 2 8 7 6 14 15 26 35 21 24 18 26 10 9 6 12 14 10 -16 26 9 13 13 6 10 18 12 5 -3 -8 13 5 -3 11 7 6 11 9 7
6 8 6 7 11 11 28 8 4 8 14 14 10 20 22 25 7 37 20 30 6 19 13 -9 16 2 6 -11 13 12 0 16 7 11 13 11 2 1 6 12 -3 -14 5 6 -1 -3 1
6 7 7 13 19 33 11 12 16 16 13 13 18 21 19 10 -1 22 17 15 32 -6 7 -1 6 22 -11 35 15 10 9 7 7 4 5 4 2 6 -1 10 10 8 4 6 10 18 18
7 5 9 16 40 10 11 12 14 12 15 13 18 16 8 14 8 20 25 25 10 29 14 18 13 -4 25 -4 10 3 22 4 14 3 11 -4 -3 42 6 5 10 8 8 6 3 -1 5
6 7 12 33 13 10 11 10 12 15 11 14 14 12 19 22 19 17 71 -58 -0 -7 4 20 11 12 -2 10 0 9 13 6 9 13 8 15 -5 -1 11 5 8 3 8 16 12 16 4
6 9 21 23 11 11 11 17 18 11 13 21 9 13 10 17 22 3 32 10 -17 1 0 21 12 2 6 -13 16 10 10 7 14 9 -7 6 17 15 9 5 9 21 4 10 9 11 16
7 10 25 20 9 14 16 17 10 11 19 -6 10 5 29 35 11 23 19 -24 14 -31 27 -0 32 15 16 13 8 25 5 5 -8 6 4 -10 5 -2 12 6 12 0 12 6 10 12 28
7 11 26 16 18 12 14 8 9 30 13 7 -1 -13 43 45 34 25 7 41 -17 2 24 30 26 27 20 -0 14 11 10 1 -14 1 11 19 3 10 -2 5 13 10 0 15 14 8 -1
8 13 26 14 11 8 9 13 21 27 7 -3 -6 49 16 27 17 20 28 -3 -8 27 -3 29 33 24 -5 7 8 4 16 10 0 -8 20 10 21 22 27 2 -3 29 -4 -18 11 -3 -11
7 14 24 10 9 9 13 19 25 11 -0 4 35 40 15 25 24 9 20 -0 12 6 21 15 15 -2 21 0 19 6 10 3 14 -1 -11 13 9 28 -14 13 -4 35 16 5 0 35 34
7 11 21 20 12 15 18 19 11 8 5 -7 2 26 19 13 17 6 3 -10 21 13 18 -18 -6 -7 19 4 5 -3 6 40 3 12 -14 17 -0 17 15 3 11 -22 23 7 15 11 12
8 10 23 20 12 13 20 16 10 4 3 14 19 40 13 8 19 1 8 16 30 26 0 -2 20 23 22 5 7 1 15 24 3 29 13 10 4 11 2 17 21 31 3 -1 1 -17 -5
8 10 27 19 19 16 13 19 5 5 10 37 27 14 21 24 27 6 -9 20 9 -2 9 11 16 28 21 11 24 -2 14 3 18 16 18 -11 6 4 -7 3 10 11 -2 11 -22 24 13
8 10 21 30 23 17 12 22 7 12 27 29 4 26 12 15 36 -9 23 4 21 -1 -14 -1 13 3 16 8 15 -4 11 13 10 10 9 12 12 10 27 30 35 2 17 12 0 4 4
6 10 16 32 18 17 13 14 2 12 26 16 7 6 4 -8 32 -3 8 12 11 2 16 19 14 20 3 8 9 11 7 15 15 7 -6 1 5 -20 -32 -26 -29 -6 -4 -6 12 2 8
6 9 14 34 17 14 13 17 4 10 37 27 1 8 8 15 12 2 16 -0 -2 -0 14 6 7 8 1 15 4 6 3 3 6 12 9 2 4 9 3 2 7 12 17 17 16 9 -5
5 7 11 35 22 11 12 10 11 9 3 20 11 7 20 9 2 31 -13 10 -1 5 3 6 9 17 7 12 3 24 9 5 -0 24 5 8 -3 -2 -5 59 25 -7 29 39 38 23 34
5 5 10 29 28 12 11 8 12 13 7 14 13 9 20 14 4 -1 8 10 13 -3 6 19 3 7 13 7 -2 6 11 1 -5 0 11 13 6 -1 38 -11 13 62 -8 13 15 7 11
5 5 7 17 40 15 9 8 10 12 5 3 10 34 4 19 6 -3 13 6 -1 -1 6 9 5 17 11 10 -0 14 8 9 4 7 8 2 4 18 -11 52 15 -42 -15 19 25 18 -19
6 5 4 10 27 28 11 8 10 9 5 3 20 4 15 8 7 19 2 3 16 25 0 -5 18 4 4 4 13 16 13 20 27 39 17 10 5 -2 7 0 -7 34 -19 11 21 15 21
6 5 5 4 13 34 20 9 9 8 9 19 6 15 18 6 11 24 13 5 -3 8 7 -10 3 10 3 3 12 11 8 7 19 7 16 31 23 7 -8 9 6 -5 -1 20 24 9 28
6 5 5 4 7 17 33 17 8 8 9 14 6 20 7 6 13 3 7 11 6 20 7 16 15 17 17 8 7 9 10 -1 13 8 14 5 18 8 19 3 14 6 17 32 16 -20 19
6 6 6 5 3 11 21 32 16 9 8 3 -7 8 22 7 12 20 9 8 10 16 1 -1 11 19 11 8 9 9 13 2 10 4 2 5 7 7 25 10 21 -22 21 11 4 20 23
6 5 6 6 4 5 15 23 30 15 11 13 9 2 13 -2 0 11 14 7 2 1 2 4 1 -0 5 8 5 11 4 1 1 16 16 12 -3 5 -7 -3 -11 8 13 7 7 24 15
Height
3087 3081 3076 3071 3065 3060 3055 3051 3046 3042 3039 3036 3032 3029 3028 3029 3030 3032 3033 3034 3035 3037 3038 3041 3042 3044 3047 3049 3050 3051 3051 3054 3058 3061 3065 3068 3071 3076 3076 3079 3083 3082 3085 3089 3087 3086 3086
3084 3077 3072 3066 3060 3055 3049 3045 3039 3035 3030 3026 3024 3021 3019 3020 3021 3025 3027 3028 3029 3031 3033 3035 3038 3040 3043 3045 3045 3048 3049 3051 3055 3059 3062 3066 3070 3073 3075 3076 3077 3081 3080 3082 3081 3081 3081
3078 3071 3064 3058 3053 3047 3040 3034 3029 3025 3020 3016 3013 3012 3010 3009 3011 3014 3019 3021 3023 3025 3028 3031 3033 3035 3037 3043 3042 3045 3048 3049 3053 3056 3060 3063 3067 3069 3071 3072 3072 3075 3076 3076 3075 3077 3075
3072 3065 3059 3052 3044 3035 3027 3023 3015 3009 3005 3003 3002 3000 2999 2998 2999 3003 3008 3013 3017 3020 3023 3026 3029 3031 3032 3036 3039 3042 3045 3048 3051 3054 3057 3060 3063 3065 3067 3067 3070 3073 3074 3074 3072 3072 3074
3067 3061 3054 3047 3038 3030 3021 3013 3007 3001 2998 2994 2992 2989 2987 2986 2988 2992 2998 3004 3010 3013 3016 3021 3025 3027 3029 3032 3035 3038 3041 3044 3048 3051 3054 3057 3060 3063 3065 3067 3070 3070 3069 3070 3072 3070 3071
3063 3056 3049 3040 3032 3023 3014 3008 3001 2995 2990 2986 2983 2980 2975 2973 2978 2981 2988 2994 3003 3006 3009 3014 3017 3026 3023 3027 3031 3034 3038 3041 3043 3047 3051 3055 3058 3060 3063 3066 3065 3066 3066 3067 3068 3070 3065
3058 3051 3043 3033 3023 3015 3006 2999 2993 2988 2984 2979 2975 2972 2970 2969 2970 2972 2981 2990 2997 2996 2999 3005 3013 3016 3019 3023 3027 3030 3035 3038 3040 3044 3048 3051 3056 3056 3061 3063 3064 3063 3064 3064 3065 3065 3061
3053 3045 3036 3024 3015 3005 2997 2992 2986 2982 2977 2973 2969 2966 2965 2964 2964 2966 2972 2977 2981 2990 2996 3001 3008 3011 3017 3019 3023 3026 3031 3035 3037 3040 3046 3047 3049 3054 3058 3059 3059 3060 3060 3061 3061 3060 3057
3047 3038 3026 3015 3005 2998 2992 2986 2980 2976 2971 2967 2964 2962 2961 2960 2961 2963 2965 2975 2978 2983 2989 2996 3003 3009 3013 3018 3020 3023 3027 3031 3035 3040 3041 3043 3050 3049 3052 3053 3054 3056 3056 3058 3059 3058 3054
3042 3030 3018 3007 3000 2993 2986 2980 2975 2970 2967 2963 2960 2958 2957 2956 2959 2959 2961 2970 2973 2979 2986 2992 2996 3003 3009 3013 3019 3021 3025 3029 3032 3037 3039 3043 3047 3047 3048 3050 3052 3053 3055 3055 3055 3056 3053
3035 3023 3011 3002 2995 2988 2981 2976 2971 2966 2963 2960 2957 2955 2953 2954 2952 2955 2960 2965 2971 2979 2980 2989 2992 2996 3003 3012 3015 3018 3021 3025 3031 3034 3037 3042 3042 3043 3044 3046 3049 3050 3048 3050 3052 3052 3049
3031 3019 3007 2998 2991 2983 2977 2972 2967 2963 2959 2957 2954 2950 2946 2946 2948 2953 2956 2960 2972 2976 2971 2979 2984 2990 2997 3005 3010 3012 3017 3023 3028 3032 3035 3040 3037 3040 3042 3042 3043 3044 3046 3047 3049 3050 3044
3027 3014 3003 2995 2987 2980 2974 2968 2963 2959 2956 2954 2951 2945 2939 2937 2945 2951 2955 2961 2970 2968 2973 2977 2981 2986 2993 2999 3006 3009 3014 3018 3024 3030 3031 3034 3033 3034 3037 3039 3040 3042 3045 3046 3045 3045 3032
3023 3011 3001 2992 2985 2978 2971 2965 2960 2956 2954 2952 2948 2941 2937 2938 2942 2948 2956 2963 2967 2966 2971 2975 2980 2988 2993 2998 3005 3009 3013 3017 3021 3025 3028 3029 3031 3029 3029 3032 3036 3037 3041 3041 3032 3024 3019
3019 3008 2998 2990 2982 2976 2969 2963 2959 2956 2954 2951 2946 2940 2939 2940 2943 2947 2954 2964 2963 2966 2968 2973 2983 2989 2993 2999 3003 3009 3012 3014 3018 3021 3026 3026 3027 3026 3027 3029 3034 3034 3035 3039 3037 3032 3028
3017 3006 2996 2988 2980 2973 2967 2961 2959 2957 2954 2950 2945 2942 2941 2944 2947 2952 2959 2963 2964 2966 2971 2977 2982 2987 2990 2996 3001 3005 3009 3011 3014 3017 3022 3024 3026 3024 3026 3027 3028 3030 3034 3036 3036 3028 3014
3016 3005 2995 2986 2979 2972 2966 2961 2959 2956 2953 2948 2945 2942 2945 2947 2951 2957 2962 2963 2966 2970 2975 2982 2982 2985 2990 2994 3000 3004 3008 3010 3012 3014 3018 3020 3023 3024 3022 3019 3022 3025 3026 3028 3028 3024 3011
3015 3004 2993 2985 2977 2972 2966 2962 2959 2955 2951 2947 2943 2944 2947 2950 2955 2959 2963 2964 2969 2974 2977 2980 2985 2987 2990 2995 2999 3003 3007 3008 3009 3012 3015 3018 3019 3018 3017 3018 3019 3021 3021 3023 3021 3010 3006
3014 3004 2992 2984 2977 2971 2965 2963 2960 2955 2950 2948 2947 2947 2951 2956 2961 2964 2966 2969 2973 2977 2981 2984 2985 2989 2992 2996 3001 3003 3005 3005 3007 3010 3013 3015 3017 3017 3013 3015 3015 3014 3014 3014 3006 3004 2991
3015 3004 2992 2983 2976 2971 2966 2965 2962 2956 2953 2953 2953 2955 2956 2957 2962 2967 2970 2974 2977 2981 2984 2986 2988 2991 2994 2997 2999 3002 3003 3005 3007 3009 3011 3013 3014 3013 3010 3009 3012 3009 3006 3004 3000 2992 2983
3015 3005 2994 2985 2977 2971 2969 2967 2965 2961 2958 2959 2957 2959 2961 2964 2967 2969 2973 2977 2980 2984 2986 2988 2991 2993 2996 2998 3000 3001 3003 3004 3006 3007 3008 3011 3008 3009 3005 3003 3002 2998 2995 2991 2988 2982 2979
3015 3006 2996 2987 2979 2973 2970 2969 2969 2967 2966 2967 2963 2963 2964 2966 2971 2977 2979 2981 2983 2986 2989 2991 2993 2994 2996 2999 3001 3001 3002 3003 3005 3005 3007 3007 3005 3004 2997 2994 2992 2987 2984 2981 2976 2971 2965
3015 3007 2998 2990 2982 2975 2972 2971 2971 2971 2971 2970 2970 2969 2971 2972 2976 2981 2983 2984 2986 2988 2990 2990 2992 2994 2995 2997 2997 2998 3000 3001 3002 3003 3003 3003 3003 3003 2993 2991 2987 2982 2979 2975 2970 2966 2961
3014 3009 3000 2991 2985 2977 2974 2972 2973 2973 2974 2973 2971 2972 2972 2975 2979 2982 2982 2985 2988 2989 2990 2991 2992 2993 2995 2995 2997 2997 2998 2999 2999 2999 2999 3000 3001 3000 2993 2990 2983 2979 2975 2971 2967 2963 2959
3013 3008 3002 2994 2987 2981 2976 2975 2974 2974 2975 2974 2973 2974 2973 2976 2979 2980 2983 2986 2987 2987 2990 2991 2991 2993 2994 2995 2997 2997 2997 2997 2995 2994 2996 2997 2999 2999 2995 2991 2982 2977 2974 2970 2966 2963 2958
3012 3007 3003 2996 2989 2983 2977 2976 2976 2975 2975 2975 2975 2974 2975 2977 2980 2981 2984 2986 2988 2989 2991 2991 2992 2992 2994 2995 2996 2997 2996 2995 2995 2993 2993 2994 2996 2999 2995 2993 2985 2977 2974 2969 2966 2964 2960
3010 3006 3002 2996 2991 2984 2978 2974 2974 2974 2975 2975 2974 2974 2975 2977 2979 2981 2984 2986 2987 2988 2989 2990 2991 2991 2992 2994 2995 2997 2995 2994 2994 2993 2992 2993 2993 2993 2993 2992 2982 2977 2974 2970 2969 2970 2962
3007 3003 3001 2995 2990 2985 2979 2973 2971 2971 2972 2972 2974 2974 2975 2975 2977 2978 2980 2983 2986 2987 2989 2990 2992 2990 2991 2993 2994 2994 2992 2992 2992 2991 2990 2991 2991 2989 2990 2990 2983 2977 2975 2973 2971 2967 2964
3004 3000 2998 2993 2987 2983 2976 2973 2968 2967 2968 2969 2970 2972 2973 2974 2975 2976 2978 2981 2982 2985 2987 2988 2990 2990 2991 2991 2992 2992 2991 2990 2990 2989 2987 2988 2987 2986 2986 2982 2979 2976 2974 2971 2969 2966 2965